Location: Allentsteig
(48.6833°N, 15.3167°E)
Time: 11:19:24
(UTC+00:00)

Iridium 4 Rocket - Pass Details

Date: 18 September 2020
Orbit: 585 x 904 km, 86.9° (Epoch: 25 October)

Event Time Altitude Azimuth Distance (km) Brightness Sun altitude
Rises 17:41:02 0° 179° (S) 3,060 6.5 -6.8°
Reaches altitude 10° 17:43:12 10° 179° (S) 2,193 5.8 -7.2°
Maximum altitude 17:48:07 86° 93° (E) 775 3.5 -8.0°
Drops below altitude 10° 17:53:34 10° 4° (N) 2,422 6.2 -8.9°
Sets 17:56:04 0° 4° (N) 3,404 7.0 -9.3°
